Regional Weather Roundup
Issued by NWS State College, PA

Home | Current Version | Previous Version | Graphics & Text | Print | Product List | Glossary Off
Versions: 1 2 3 4 5 6 7 8 9 10 11 12 13 14 15 16 17 18 19 20 21 22 23 24 25 26 27 28 29 30 31 32 33 34 35 36 37 38 39 40 41 42 43 44 45 46 47 48 49 50

000
ASUS41 KCTP 010103
RWRCTP

REGIONAL WEATHER ROUNDUP
NATIONAL WEATHER SERVICE STATE COLLEGE PA
900 PM EDT SUN AUG 31 2014

Note: "fair" indicates few or no clouds below 12,000 feet with no
significant weather and/or obstructions to visibility.

* = STATION THAT DOES NOT REPORT PRECIPITATION /E.G. RAIN...SNOW...ETC/
    THUNDER OR FOG.

PAZ002>004-007>009-013>016-020>023-029>032-010200-
WESTERN PENNSYLVANIA

CITY           SKY/WX    TMP DP  RH WIND       PRES   REMARKS
ERIE           FAIR      72  69  90 CALM      29.98S
MEADVILLE      FAIR      70  67  90 S5        30.03R
FRANKLIN*      MOCLDY    70  64  83 SW7       30.05S
NEW CASTLE     FAIR      71  71 100 CALM      30.03S
BEAVER COUNTY  NOT AVBL
BUTLER*        CLOUDY    70  66  88 S5        30.06S
PITTSBURGH INT CLOUDY    72  70  93 SW10      30.04R
PITTSBURGH     MOCLDY    72  68  87 S7        30.04S
INDIANA*       MOCLDY    72  70  94 CALM      30.09S
LATROBE        MOCLDY    73  72  94 S5        30.06S
WASHINGTON CO* CLOUDY    72  68  88 CALM      30.06S
$$

PAZ004>006-010>012-017>019-024>028-033>037-041-042-045-046-049>053-010200-
CENTRAL PENNSYLVANIA

CITY           SKY/WX    TMP DP  RH WIND       PRES   REMARKS
BRADFORD       CLOUDY    69  67  93 SW6       30.06S
DUBOIS         MOCLDY    69  67  93 SW5       30.06R
CLEARFIELD     FAIR      70  68  93 SW5       30.06R
JOHNSTOWN      MOCLDY    69  65  86 SW7       30.10S
ALTOONA        FAIR      70  69  97 CALM      30.08R
STATE COLLEGE  PTCLDY    72  68  88 SW5       30.06R
WILLIAMSPORT   FAIR      72  68  87 CALM      30.00R
SELINSGROVE    FAIR      72  70  93 CALM      30.03R
FT INDIANTOWN  MOCLDY    75  74  96 CALM      30.03R
CAPITAL CITY   CLOUDY    77  71  82 CALM      30.02R
HARRISBURG     CLOUDY    77  72  84 CALM      30.01R
YORK           CLOUDY    75  71  87 S5        30.02S
$$

PAZ038>040-043-044-047-048-054-055-060>062-067>071-010200-
EASTERN PENNSYLVANIA

CITY           SKY/WX    TMP DP  RH WIND       PRES   REMARKS
SCRANTON       FAIR      72  68  87 CALM      30.03R
MOUNT POCONO   CLOUDY    71  67  87 W7        30.08R
ALLENTOWN      FAIR      74  71  91 SW6       30.01R
QUAKERTOWN*    FAIR      73  72  94 CALM      30.04R
READING        MOCLDY    77  74  90 S3        30.01R
LANCASTER      CLOUDY    74  71  91 CALM      30.02S
COATESVILLE    FAIR      73  73 100 CALM      30.04F
POTTSTOWN      MOCLDY    74  71  91 CALM      30.04R
BLUE BELL      FAIR      73  72  94 CALM      30.03R
DOYLESTOWN     LGT RAIN  74  73  97 S3        30.02R
WILLOW GROVE   NOT AVBL
NORTH PHILA    MOCLDY    76  70  82 SW7       30.03R
PHILADELPHIA   LGT RAIN  75  72  90 SE6       30.03S
$$


USA.gov is the U.S. government's official web portal to all federal, state and local government web resources and services.